FW5407 Weather Reports


time (UTC)temp
C
wind
direction
speed
KPH
gust
KPH
rain 1hr
cm
rain 24hr
cm
rain mn
cm
humidity
%
barometer
mb
20260503212035 22 77 6.4 12.9 0.00 0.00 0.00 42 1009.4
20260503211534 21 108 3.2 12.9 0.00 0.00 0.00 47 1009.4
20260503211033 21 147 1.6 9.7 0.00 0.00 0.00 47 1009.5
20260503210536 20 108 3.2 12.9 0.00 0.00 0.00 50 1009.6
20260503205532 20 123 3.2 14.5 0.00 0.00 0.00 52 1009.7
20260503205032 20 83 3.2 14.5 0.00 0.00 0.00 49 1009.8
20260503204545 20 121 4.8 14.5 0.00 0.00 0.00 51 1009.8
20260503204030 20 131 1.6 6.4 0.00 0.00 0.00 52 1009.9
20260503203529 20 117 0.0 9.7 0.00 0.00 0.00 53 1010.0
20260503203031 20 187 3.2 9.7 0.00 0.00 0.00 54 1010.2
20260503202528 20 125 1.6 9.7 0.00 0.00 0.00 53 1010.3
20260503202028 20 113 1.6 9.7 0.00 0.00 0.00 52 1010.3
20260503201529 21 214 1.6 8.0 0.00 0.00 0.00 51 1010.4
20260503201027 21 110 1.6 6.4 0.00 0.00 0.00 53 1010.3
20260503200526 20 139 0.0 11.3 0.00 0.00 0.00 54 1010.4
20260503195526 20 71 0.0 11.3 0.00 0.00 0.00 53 1010.4
20260503195026 20 122 1.6 11.3 0.00 0.00 0.00 53 1010.5
20260503194526 20 107 1.6 8.0 0.00 0.00 0.00 52 1010.5
20260503194028 20 102 3.2 8.0 0.00 0.00 0.00 54 1010.5
20260503193526 20 131 1.6 9.7 0.00 0.00 0.00 54 1010.5
20260503193033 20 118 1.6 9.7 0.00 0.00 0.00 57 1010.6
20260503192525 20 112 3.2 11.3 0.00 0.00 0.00 55 1010.6
20260503192025 20 186 3.2 8.0 0.00 0.00 0.00 53 1010.7
20260503191524 20 108 1.6 11.3 0.00 0.00 0.00 55 1010.7
20260503191024 20 155 4.8 11.3 0.00 0.00 0.00 51 1010.7
20260503190525 20 94 1.6 8.0 0.00 0.00 0.00 52 1010.7
20260503185526 20 113 1.6 12.9 0.00 0.00 0.00 54 1010.8
20260503185025 20 119 0.0 12.9 0.00 0.00 0.00 55 1010.8
20260503184534 20 118 0.0 8.0 0.00 0.00 0.00 54 1010.9
20260503184023 19 95 0.0 8.0 0.00 0.00 0.00 55 1011.0
20260503183521 19 122 1.6 6.4 0.00 0.00 0.00 58 1011.1
20260503183020 18 226 1.6 6.4 0.00 0.00 0.00 58 1011.1
20260503182519 18 116 0.0 11.3 0.00 0.00 0.00 56 1011.2
20260503182018 18 84 1.6 8.0 0.00 0.00 0.00 59 1011.2
20260503181517 18 96 0.0 6.4 0.00 0.00 0.00 58 1011.3
20260503181016 17 132 0.0 8.0 0.00 0.00 0.00 63 1011.3
20260503180517 17 155 0.0 8.0 0.00 0.00 0.00 63 1011.2
20260503175514 17 142 0.0 8.0 0.00 0.00 0.00 69 1011.3
20260503175014 17 41 0.0 9.7 0.00 0.00 0.00 67 1011.4
20260503174514 17 145 1.6 9.7 0.00 0.00 0.00 67 1011.4
20260503174014 17 125 1.6 8.0 0.00 0.00 0.00 69 1011.4
20260503173514 17 129 1.6 9.7 0.00 0.00 0.00 70 1011.4
20260503173015 17 139 1.6 9.7 0.00 0.00 0.00 68 1011.5
20260503172514 17 150 1.6 9.7 0.00 0.00 0.00 66 1011.4
20260503172013 17 145 4.8 12.9 0.00 0.00 0.00 65 1011.5
20260503171513 17 134 3.2 12.9 0.00 0.00 0.00 65 1011.6
20260503171015 17 140 1.6 8.0 0.00 0.00 0.00 66 1011.7
20260503170514 17 173 3.2 9.7 0.00 0.00 0.00 67 1011.7
20260503151011 15 124 1.6 4.8 0.00 0.00 0.00 78 1012.0
20260503150508 13 122 1.6 9.7 0.00 0.00 0.00 80 1012.1
20260503131052 -17 0.0 0.0 0.00 0.00 0.00 1011.5
20260503130551 -17 0.0 0.0 0.00 0.00 0.00 1011.5
20260503110539 11 68 0.0 0.0 0.00 0.00 0.00 86 1011.8
20260503081530 12 158 0.0 1.6 0.00 0.00 0.00 78 1011.7
20260503081031 12 158 0.0 1.6 0.00 0.00 0.00 78 1011.6
20260503080530 12 277 0.0 1.6 0.00 0.00 0.00 78 1011.7
20260503072534 12 279 0.0 0.0 0.00 0.00 0.00 78 1011.5
20260503072034 12 278 0.0 0.0 0.00 0.00 0.00 79 1011.5
20260503071537 12 278 0.0 0.0 0.00 0.00 0.00 76 1011.5
20260503071031 12 278 0.0 0.0 0.00 0.00 0.00 76 1011.5
20260503070530 12 278 0.0 0.0 0.00 0.00 0.00 75 1011.5
20260503055100 13 38 0.0 0.0 0.00 0.00 0.00 69 1011.2
20260503054607 13 39 0.0 0.0 0.00 0.00 0.00 68 1011.2
20260503054058 13 39 0.0 0.0 0.00 0.00 0.00 67 1011.3
20260503053559 14 38 0.0 0.0 0.00 0.00 0.00 67 1011.3
20260503053057 14 38 0.0 0.0 0.00 0.00 0.00 66 1011.3
20260503052556 14 38 0.0 0.0 0.00 0.00 0.00 66 1011.3
20260503052058 14 39 0.0 3.2 0.00 0.00 0.00 65 1011.2
20260503051559 14 40 0.0 3.2 0.00 0.00 0.00 65 1011.2
20260503051056 14 46 0.0 3.2 0.00 0.00 0.00 64 1011.3
20260503050558 14 32 0.0 4.8 0.00 0.00 0.00 65 1011.2
20260503045520 14 30 0.0 3.2 0.00 0.00 0.00 66 1011.2
20260503045021 15 70 0.0 6.4 0.00 0.00 0.00 65 1011.2
20260503044521 15 302 0.0 8.0 0.00 0.00 0.00 65 1011.2
20260503044019 15 67 0.0 4.8 0.00 0.00 0.00 64 1011.2
20260503043519 15 82 1.6 4.8 0.00 0.00 0.00 63 1011.1
20260503043018 15 41 0.0 3.2 0.00 0.00 0.00 63 1011.1
20260503042518 15 359 0.0 4.8 0.00 0.00 0.00 64 1011.1
20260503042019 15 135 0.0 4.8 0.00 0.00 0.00 64 1011.0
20260503041517 15 34 0.0 0.0 0.00 0.00 0.00 64 1011.0
20260503041017 15 28 0.0 0.0 0.00 0.00 0.00 66 1011.0
20260503040515 14 41 0.0 0.0 0.00 0.00 0.00 66 1011.0
20260503040017 15 328 0.0 4.8 0.00 0.00 0.00 66 1010.9
20260503035515 15 75 0.0 4.8 0.00 0.00 0.00 70 1010.8
20260503035016 15 335 0.0 1.6 0.00 0.00 0.00 68 1010.7
20260503034533 15 78 0.0 6.4 0.00 0.00 0.00 69 1010.7
20260503034020 15 98 0.0 3.2 0.00 0.00 0.00 71 1010.6
20260503033514 15 57 0.0 1.6 0.00 0.00 0.00 70 1010.5
20260503032512 15 170 0.0 4.8 0.00 0.00 0.00 68 1010.5
20260503032011 15 276 0.0 4.8 0.00 0.00 0.00 67 1010.5
20260503031510 15 63 0.0 3.2 0.00 0.00 0.00 68 1010.5
20260503031011 15 149 0.0 12.9 0.00 0.00 0.00 68 1010.4
20260503030510 15 79 0.0 0.0 0.00 0.00 0.00 68 1010.4
20260503030010 15 58 0.0 6.4 0.00 0.00 0.00 67 1010.3
20260503025509 16 113 0.0 6.4 0.00 0.00 0.00 67 1010.3
20260503025008 15 116 1.6 6.4 0.00 0.00 0.00 65 1010.4
20260503024507 16 36 0.0 4.8 0.00 0.00 0.00 70 1010.4
20260503024007 16 84 0.0 6.4 0.00 0.00 0.00 65 1010.4
20260503023505 16 311 0.0 1.6 0.00 0.00 0.00 64 1010.4
20260503022512 16 208 0.0 6.4 0.00 0.00 0.00 68 1010.5
20260503022011 16 285 0.0 3.2 0.00 0.00 0.00 66 1010.5
20260503021510 17 104 0.0 1.6 0.00 0.00 0.00 62 1010.5
20260503021011 17 115 0.0 0.0 0.00 0.00 0.00 62 1010.5
20260503020510 17 101 0.0 3.2 0.00 0.00 0.00 61 1010.5
20260503020010 17 117 0.0 8.0 0.00 0.00 0.00 61 1010.6
20260503015508 17 101 0.0 8.0 0.00 0.00 0.00 62 1010.6
20260503015007 17 65 0.0 11.3 0.00 0.00 0.00 64 1010.7
20260503014514 17 149 0.0 9.7 0.00 0.00 0.00 63 1010.6
20260503014007 17 95 1.6 6.4 0.00 0.00 0.00 61 1010.6
20260503013505 17 136 0.0 4.8 0.00 0.00 0.00 61 1010.7
20260503012538 17 115 0.0 6.4 0.00 0.00 0.00 62 1010.8
20260503012038 17 128 0.0 6.4 0.00 0.00 0.00 63 1010.9
20260503011537 18 122 0.0 4.8 0.00 0.00 0.00 60 1010.9
20260503011036 18 221 0.0 9.7 0.00 0.00 0.00 60 1010.9
20260503010539 18 188 0.0 9.7 0.00 0.00 0.00 58 1010.9
20260503010040 18 170 3.2 9.7 0.00 0.00 0.00 59 1010.9
20260503005539 18 122 1.6 9.7 0.00 0.00 0.00 57 1011.0
20260503005037 18 44 1.6 9.7 0.00 0.00 0.00 58 1011.0
20260503004535 18 326 1.6 11.3 0.00 0.00 0.00 58 1011.0
20260503004035 18 136 0.0 12.9 0.00 0.00 0.00 57 1011.1
20260503003533 19 128 4.8 20.9 0.00 0.00 0.00 54 1011.0
20260503002525 19 108 0.0 12.9 0.00 0.00 0.00 53 1011.1
20260503002029 19 136 1.6 12.9 0.00 0.00 0.00 52 1011.1
20260503001525 19 77 0.0 8.0 0.00 0.00 0.00 52 1011.2
20260503001025 19 115 1.6 11.3 0.00 0.00 0.00 54 1011.2
20260503000525 19 293 1.6 9.7 0.00 0.00 0.00 52 1011.2
20260503000031 19 86 0.0 8.0 0.00 0.00 0.00 55 1011.2
20260502235524 19 73 0.0 9.7 0.00 0.00 0.00 54 1011.3
20260502235022 19 108 3.2 14.5 0.00 0.00 0.00 55 1011.3
20260502234522 19 49 4.8 12.9 0.00 0.00 0.00 55 1011.4
20260502234022 19 200 1.6 11.3 0.00 0.00 0.00 56 1011.5
20260502233522 19 135 0.0 12.9 0.00 0.00 0.00 56 1011.6
20260502232520 18 116 4.8 11.3 0.00 0.00 0.00 55 1011.6
20260502232019 19 91 3.2 12.9 0.00 0.00 0.00 54 1011.6
20260502231522 19 131 4.8 12.9 0.00 0.00 0.00 53 1011.7
20260502231021 19 135 4.8 14.5 0.00 0.00 0.00 55 1011.7
20260502230520 19 125 4.8 14.5 0.00 0.00 0.00 54 1011.8
20260502230019 19 99 3.2 11.3 0.00 0.00 0.00 55 1011.7
20260502225518 19 85 3.2 12.9 0.00 0.00 0.00 55 1011.9
20260502225019 19 229 3.2 12.9 0.00 0.00 0.00 55 1012.0
20260502224518 19 105 0.0 16.1 0.00 0.00 0.00 54 1012.0
20260502224018 19 86 0.0 14.5 0.00 0.00 0.00 55 1012.0
20260502223518 19 318 4.8 16.1 0.00 0.00 0.00 53 1012.1
20260502222515 19 228 3.2 8.0 0.00 0.00 0.00 56 1012.3
20260502222014 18 136 0.0 0.0 0.00 0.00 0.00 58 1012.4
20260502221513 18 120 0.0 11.3 0.00 0.00 0.00 57 1012.5
20260502221013 18 113 0.0 11.3 0.00 0.00 0.00 57 1012.5
20260502220513 18 158 3.2 9.7 0.00 0.00 0.00 59 1012.6
20260502220013 18 205 3.2 9.7 0.00 0.00 0.00 59 1012.6
20260502215512 18 139 4.8 11.3 0.00 0.00 0.00 59 1012.7
20260502215013 18 140 0.0 11.3 0.00 0.00 0.00 59 1012.8
20260502214518 18 145 4.8 11.3 0.00 0.00 0.00 58 1012.9
20260502214012 18 106 0.0 6.4 0.00 0.00 0.00 60 1012.9
20260502213511 18 98 0.0 12.9 0.00 0.00 0.00 63 1013.0
20260502212515 18 114 4.8 14.5 0.00 0.00 0.00 60 1013.1